Tracking 19832 objects as of 24-Aug-2019
HD Live streaming from Space Station
objects crossing your sky now

SL-16 R/B

Track SL-16 R/B now!
10-day predictions
SL-16 R/B is classified as:


NORAD ID: 23705
Int'l Code: 1995-058B
Perigee: 840.4 km
Apogee: 857.6 km
Inclination: 71.0 °
Period: 101.8 minutes
Semi major axis: 7220 km
RCS: 9.8957 m2 (large)
Launch date: October 31, 1995
Source: Commonwealth of Independent States (former USSR) (CIS)
Launch site: TYURATAM MISSILE AND SPACE COMPLEX (TTMTR)

Note: This is a ROCKET BODY
aabbcc
Your satellite tracking list
Your tracking list is empty




NASA's NSSDC Master Catalog

Two Line Element Set (TLE):
1 23705U 95058B   19235.93943200 -.00000066 +00000-0 -93410-5 0  9990
2 23705 071.0233 155.2742 0011921 172.6555 187.4745 14.15128111229741
Source of the keplerian elements: AFSPC